Time,TemperatureF,DewpointF,PressureIn,WindDirection,WindDirectionDegrees,WindSpeedMPH,WindSpeedGustMPH,Humidity,HourlyPrecipIn,Conditions,Clouds,dailyrainin,SoftwareType,DateUTC
2013-12-30 00:01:00,39.0,37.2,29.80,NW,322,1.0,5.0,93,0.00,,,1.25,meteohub,2013-12-30 05:01:00,
2013-12-30 00:03:00,39.0,37.2,29.80,NNW,334,2.0,5.0,93,0.00,,,1.25,meteohub,2013-12-30 05:03:00,
2013-12-30 00:08:00,38.8,37.0,29.80,NNW,337,3.0,5.0,93,0.00,,,0.00,meteohub,2013-12-30 05:08:00,
2013-12-30 00:13:00,38.8,36.7,29.80,NNW,347,3.0,4.0,92,0.00,,,0.00,meteohub,2013-12-30 05:13:00,
2013-12-30 00:18:00,38.7,36.5,29.81,NNW,340,3.0,4.0,92,0.00,,,0.00,meteohub,2013-12-30 05:18:00,
2013-12-30 00:23:00,38.5,36.3,29.81,NW,322,3.0,4.0,92,0.00,,,0.00,meteohub,2013-12-30 05:23:00,
2013-12-30 00:28:00,38.1,36.0,29.81,NW,311,1.0,4.0,92,0.00,,,0.00,meteohub,2013-12-30 05:28:00,
2013-12-30 00:33:00,37.9,35.8,29.81,NW,322,2.0,4.0,92,0.00,,,0.00,meteohub,2013-12-30 05:33:00,
2013-12-30 00:38:00,37.8,35.6,29.82,NW,312,4.0,4.0,92,0.00,,,0.00,meteohub,2013-12-30 05:38:00,
2013-12-30 00:43:00,37.6,35.4,29.83,North,351,1.0,4.0,92,0.00,,,0.00,meteohub,2013-12-30 05:43:00,
2013-12-30 00:48:00,37.4,35.2,29.83,NW,304,1.0,4.0,92,0.00,,,0.00,meteohub,2013-12-30 05:48:00,
2013-12-30 00:53:00,37.2,35.1,29.83,NNW,340,0.0,4.0,92,0.00,,,0.00,meteohub,2013-12-30 05:53:00,
2013-12-30 00:58:00,37.2,35.1,29.83,WNW,297,2.0,2.0,92,0.00,,,0.00,meteohub,2013-12-30 05:58:00,
2013-12-30 01:03:00,37.0,34.9,29.84,NNW,343,1.0,2.0,92,0.00,,,0.00,meteohub,2013-12-30 06:03:00,
2013-12-30 01:08:00,37.0,34.7,29.84,NNW,334,1.0,3.0,91,0.00,,,0.00,meteohub,2013-12-30 06:08:00,
2013-12-30 01:13:00,36.9,34.7,29.85,NW,318,1.0,3.0,92,0.00,,,0.00,meteohub,2013-12-30 06:13:00,
2013-12-30 01:18:00,36.9,34.5,29.84,NW,318,1.0,3.0,91,0.00,,,0.00,meteohub,2013-12-30 06:18:00,
2013-12-30 01:23:00,36.7,34.3,29.84,NW,325,0.0,3.0,91,0.00,,,0.00,meteohub,2013-12-30 06:23:00,
2013-12-30 01:28:00,36.5,34.3,29.83,North,4,1.0,3.0,92,0.00,,,0.00,meteohub,2013-12-30 06:28:00,
2013-12-30 01:33:00,36.3,34.0,29.83,ESE,120,0.0,3.0,91,0.00,,,0.00,meteohub,2013-12-30 06:33:00,
2013-12-30 01:38:00,36.1,33.8,29.85,NW,312,2.0,3.0,91,0.00,,,0.00,meteohub,2013-12-30 06:38:00,
2013-12-30 01:43:00,36.0,33.8,29.85,NW,312,1.0,3.0,92,0.00,,,0.00,meteohub,2013-12-30 06:43:00,
2013-12-30 01:48:00,36.0,33.8,29.86,NW,315,2.0,3.0,92,0.00,,,0.00,meteohub,2013-12-30 06:48:00,
2013-12-30 01:53:00,36.0,33.8,29.86,NW,317,1.0,3.0,92,0.00,,,0.00,meteohub,2013-12-30 06:53:00,
2013-12-30 01:59:00,35.4,33.3,29.86,NW,308,2.0,2.0,92,0.00,,,0.00,meteohub,2013-12-30 06:59:00,
2013-12-30 07:48:00,33.6,32.0,30.02,North,-999,-999.0,-999.0,94,-99.99,,,0.00,meteohub,2013-12-30 12:48:00,
2013-12-30 07:53:00,33.6,32.0,30.02,North,-999,-999.0,-999.0,94,0.00,,,0.00,meteohub,2013-12-30 12:53:00,
2013-12-30 07:58:00,33.8,32.2,30.03,WNW,302,1.0,2.0,94,0.00,,,0.00,meteohub,2013-12-30 12:58:00,
2013-12-30 08:03:00,34.0,32.4,30.03,NW,305,0.0,2.0,94,0.00,,,0.00,meteohub,2013-12-30 13:03:00,
2013-12-30 08:08:00,34.0,32.4,30.03,NW,311,1.0,2.0,94,0.00,,,0.00,meteohub,2013-12-30 13:08:00,
2013-12-30 08:13:00,34.2,32.5,30.04,NW,316,0.0,2.0,94,0.00,,,0.00,meteohub,2013-12-30 13:13:00,
2013-12-30 08:18:00,34.2,32.4,30.04,WNW,291,1.0,2.0,93,0.00,,,0.00,meteohub,2013-12-30 13:18:00,
2013-12-30 08:23:00,34.3,32.5,30.04,WNW,302,2.0,2.0,93,0.00,,,0.00,meteohub,2013-12-30 13:23:00,
2013-12-30 08:28:00,34.5,32.7,30.04,NW,318,1.0,2.0,93,0.00,,,0.00,meteohub,2013-12-30 13:28:00,
2013-12-30 08:33:00,34.7,32.9,30.04,NW,316,1.0,3.0,93,0.00,,,0.00,meteohub,2013-12-30 13:33:00,
2013-12-30 08:38:00,34.9,33.1,30.05,NW,318,1.0,3.0,93,0.00,,,0.00,meteohub,2013-12-30 13:38:00,
2013-12-30 08:43:00,35.1,33.3,30.05,NNW,329,2.0,2.0,93,0.00,,,0.00,meteohub,2013-12-30 13:43:00,
2013-12-30 08:48:00,35.2,33.4,30.05,NW,319,1.0,3.0,93,0.00,,,0.00,meteohub,2013-12-30 13:48:00,
2013-12-30 08:53:00,35.4,33.6,30.06,WNW,302,2.0,3.0,93,0.00,,,0.00,meteohub,2013-12-30 13:53:00,
2013-12-30 08:58:00,35.6,33.4,30.06,WNW,284,1.0,3.0,92,0.00,,,0.00,meteohub,2013-12-30 13:58:00,
2013-12-30 09:03:00,36.0,33.8,30.06,WNW,289,1.0,3.0,92,0.00,,,0.00,meteohub,2013-12-30 14:03:00,
2013-12-30 09:09:00,36.1,34.0,30.06,WNW,292,1.0,3.0,92,0.00,,,0.00,meteohub,2013-12-30 14:09:00,
2013-12-30 09:14:00,36.3,34.0,30.07,WNW,285,1.0,3.0,91,0.00,,,0.00,meteohub,2013-12-30 14:14:00,
2013-12-30 09:19:00,36.3,34.0,30.07,WNW,288,2.0,3.0,91,0.00,,,0.00,meteohub,2013-12-30 14:19:00,
2013-12-30 09:24:00,36.7,34.3,30.07,NW,308,0.0,3.0,91,0.00,,,0.00,meteohub,2013-12-30 14:24:00,
2013-12-30 09:29:00,36.9,34.5,30.08,NW,312,1.0,4.0,91,0.00,,,0.00,meteohub,2013-12-30 14:29:00,
2013-12-30 09:34:00,37.0,34.7,30.07,NW,313,1.0,4.0,91,0.00,,,0.00,meteohub,2013-12-30 14:34:00,
2013-12-30 09:39:00,37.0,34.3,30.07,WNW,290,1.0,3.0,90,0.00,,,0.00,meteohub,2013-12-30 14:39:00,
2013-12-30 09:44:00,37.4,34.7,30.08,WNW,284,0.0,3.0,90,0.00,,,0.00,meteohub,2013-12-30 14:44:00,
2013-12-30 09:49:00,37.8,35.1,30.08,WNW,290,0.0,3.0,90,0.00,,,0.00,meteohub,2013-12-30 14:49:00,
2013-12-30 09:54:00,37.9,35.2,30.08,NW,305,1.0,3.0,90,0.00,,,0.00,meteohub,2013-12-30 14:54:00,
2013-12-30 09:59:00,38.1,35.4,30.08,NW,322,1.0,2.0,90,0.00,,,0.00,meteohub,2013-12-30 14:59:00,
2013-12-30 10:04:00,38.3,35.4,30.09,NW,315,2.0,2.0,89,0.00,,,0.00,meteohub,2013-12-30 15:04:00,
2013-12-30 10:09:00,38.5,35.6,30.09,NNW,332,1.0,2.0,89,0.00,,,0.00,meteohub,2013-12-30 15:09:00,
2013-12-30 10:14:00,38.7,35.8,30.09,NW,313,2.0,3.0,89,0.00,,,0.00,meteohub,2013-12-30 15:14:00,
2013-12-30 10:19:00,39.0,35.8,30.09,NW,309,2.0,3.0,88,0.00,,,0.00,meteohub,2013-12-30 15:19:00,
2013-12-30 10:24:00,39.2,36.0,30.09,WNW,302,1.0,3.0,88,0.00,,,0.00,meteohub,2013-12-30 15:24:00,
2013-12-30 10:29:00,39.4,35.8,30.09,NW,305,3.0,3.0,87,0.00,,,0.00,meteohub,2013-12-30 15:29:00,
2013-12-30 10:34:00,39.6,35.8,30.09,NNW,345,4.0,4.0,86,0.00,,,0.00,meteohub,2013-12-30 15:34:00,
2013-12-30 10:39:00,39.7,35.2,30.09,WNW,291,2.0,6.0,84,0.00,,,0.00,meteohub,2013-12-30 15:39:00,
2013-12-30 10:44:00,39.9,35.4,30.09,NNW,336,3.0,6.0,84,0.00,,,0.00,meteohub,2013-12-30 15:44:00,
2013-12-30 10:49:00,39.9,35.2,30.09,NW,318,2.0,5.0,83,0.00,,,0.00,meteohub,2013-12-30 15:49:00,
2013-12-30 10:54:00,40.1,35.1,30.09,NW,325,5.0,6.0,82,0.00,,,0.00,meteohub,2013-12-30 15:54:00,
2013-12-30 10:59:00,40.3,34.5,30.09,NNW,340,3.0,6.0,80,0.00,,,0.00,meteohub,2013-12-30 15:59:00,
2013-12-30 11:04:00,40.5,34.5,30.09,NNW,339,4.0,6.0,79,0.00,,,0.00,meteohub,2013-12-30 16:04:00,
2013-12-30 11:10:00,40.3,34.5,30.10,WNW,297,2.0,8.0,80,0.00,,,0.00,meteohub,2013-12-30 16:10:00,
2013-12-30 11:15:00,39.0,33.4,30.10,NW,325,2.0,8.0,80,0.00,,,0.00,meteohub,2013-12-30 16:15:00,
2013-12-30 11:20:00,38.3,32.9,30.10,NNE,22,4.0,10.0,81,0.00,,,0.00,meteohub,2013-12-30 16:20:00,
2013-12-30 11:25:00,37.8,32.7,30.10,NE,44,5.0,10.0,82,0.00,,,0.00,meteohub,2013-12-30 16:25:00,
2013-12-30 11:30:00,37.4,32.2,30.10,NNW,338,2.0,8.0,81,0.00,,,0.00,meteohub,2013-12-30 16:30:00,
2013-12-30 11:35:00,37.2,32.0,30.10,NNW,347,2.0,8.0,81,0.00,,,0.00,meteohub,2013-12-30 16:35:00,
2013-12-30 11:40:00,37.2,31.6,30.11,NW,311,2.0,8.0,80,0.00,,,0.00,meteohub,2013-12-30 16:40:00,
2013-12-30 11:45:00,37.0,31.1,30.10,NNE,18,1.0,8.0,79,0.00,,,0.00,meteohub,2013-12-30 16:45:00,
2013-12-30 11:50:00,36.9,30.6,30.10,NE,49,1.0,8.0,78,0.00,,,0.00,meteohub,2013-12-30 16:50:00,
2013-12-30 11:55:00,36.9,30.6,30.10,NNE,18,6.0,8.0,78,0.00,,,0.00,meteohub,2013-12-30 16:55:00,
2013-12-30 12:00:00,36.7,30.2,30.10,NE,36,2.0,8.0,77,0.00,,,0.00,meteohub,2013-12-30 17:00:00,
2013-12-30 12:05:00,36.7,30.6,30.11,North,4,5.0,8.0,78,0.00,,,0.00,meteohub,2013-12-30 17:05:00,
2013-12-30 12:10:00,36.7,30.6,30.11,WNW,296,9.0,9.0,78,0.00,,,0.00,meteohub,2013-12-30 17:10:00,
2013-12-30 12:15:00,36.3,29.5,30.11,NNE,33,4.0,8.0,76,0.00,,,0.00,meteohub,2013-12-30 17:15:00,
2013-12-30 12:20:00,36.1,29.3,30.12,NNE,25,5.0,9.0,76,0.00,,,0.00,meteohub,2013-12-30 17:20:00,
2013-12-30 12:25:00,36.0,28.8,30.11,NE,53,6.0,9.0,75,0.00,,,0.00,meteohub,2013-12-30 17:25:00,
2013-12-30 12:30:00,35.8,28.6,30.12,North,351,4.0,10.0,75,0.00,,,0.00,meteohub,2013-12-30 17:30:00,
2013-12-30 12:35:00,35.8,28.6,30.11,NW,311,3.0,10.0,75,0.00,,,0.00,meteohub,2013-12-30 17:35:00,
2013-12-30 12:40:00,35.8,28.4,30.12,North,9,5.0,10.0,74,0.00,,,0.00,meteohub,2013-12-30 17:40:00,
2013-12-30 12:45:00,35.8,28.4,30.12,NNW,335,4.0,9.0,74,0.00,,,0.00,meteohub,2013-12-30 17:45:00,
2013-12-30 12:50:00,35.8,28.4,30.12,WNW,300,2.0,8.0,74,0.00,,,0.00,meteohub,2013-12-30 17:50:00,
2013-12-30 12:55:00,35.8,28.4,30.12,NNE,22,7.0,8.0,74,0.00,,,0.00,meteohub,2013-12-30 17:55:00,
2013-12-30 13:00:00,35.8,28.0,30.12,North,11,2.0,8.0,73,0.00,,,0.00,meteohub,2013-12-30 18:00:00,
2013-12-30 13:05:00,36.0,28.2,30.12,NNW,345,2.0,8.0,73,0.00,,,0.00,meteohub,2013-12-30 18:05:00,
2013-12-30 13:10:00,36.0,27.9,30.13,West,281,2.0,8.0,72,0.00,,,0.00,meteohub,2013-12-30 18:10:00,
2013-12-30 13:15:00,35.8,27.0,30.13,NNE,15,4.0,8.0,70,0.00,,,0.00,meteohub,2013-12-30 18:15:00,
2013-12-30 13:20:00,35.6,26.4,30.13,NNW,332,3.0,8.0,69,0.00,,,0.00,meteohub,2013-12-30 18:20:00,
2013-12-30 13:25:00,35.2,26.1,30.14,West,277,4.0,9.0,69,0.00,,,0.00,meteohub,2013-12-30 18:25:00,
2013-12-30 13:31:00,35.1,25.9,30.15,NW,319,1.0,9.0,69,0.00,,,0.00,meteohub,2013-12-30 18:31:00,
2013-12-30 13:36:00,34.9,25.3,30.15,NNW,334,4.0,8.0,68,0.00,,,0.00,meteohub,2013-12-30 18:36:00,
2013-12-30 13:41:00,34.2,24.6,30.15,NNW,330,4.0,11.0,68,0.00,,,0.00,meteohub,2013-12-30 18:41:00,
2013-12-30 13:46:00,34.0,24.8,30.15,NE,36,5.0,11.0,69,0.00,,,0.00,meteohub,2013-12-30 18:46:00,
2013-12-30 13:51:00,33.6,24.6,30.15,North,351,3.0,10.0,69,0.00,,,0.00,meteohub,2013-12-30 18:51:00,
2013-12-30 13:56:00,33.3,24.3,30.15,NE,50,4.0,9.0,69,0.00,,,0.00,meteohub,2013-12-30 18:56:00,
2013-12-30 14:01:00,33.3,24.3,30.15,NNW,340,1.0,9.0,69,0.00,,,0.00,meteohub,2013-12-30 19:01:00,
2013-12-30 14:06:00,33.1,24.1,30.16,NE,36,4.0,8.0,69,0.00,,,0.00,meteohub,2013-12-30 19:06:00,
2013-12-30 14:11:00,32.9,23.5,30.17,NW,313,3.0,8.0,68,0.00,,,0.00,meteohub,2013-12-30 19:11:00,
2013-12-30 14:16:00,32.7,23.0,30.17,WNW,300,2.0,7.0,67,0.00,,,0.00,meteohub,2013-12-30 19:16:00,
2013-12-30 14:21:00,32.7,23.4,30.17,NNE,23,4.0,7.0,68,0.00,,,0.00,meteohub,2013-12-30 19:21:00,
2013-12-30 14:26:00,32.5,23.2,30.17,NNW,328,6.0,7.0,68,0.00,,,0.00,meteohub,2013-12-30 19:26:00,
2013-12-30 14:31:00,32.4,22.6,30.17,NNW,340,2.0,9.0,67,0.00,,,0.00,meteohub,2013-12-30 19:31:00,
2013-12-30 14:36:00,32.2,22.8,30.17,NE,43,4.0,9.0,68,0.00,,,0.00,meteohub,2013-12-30 19:36:00,
2013-12-30 14:41:00,32.2,22.8,30.18,NNW,334,2.0,8.0,68,0.00,,,0.00,meteohub,2013-12-30 19:41:00,
2013-12-30 14:46:00,32.2,22.5,30.18,North,6,2.0,8.0,67,0.00,,,0.00,meteohub,2013-12-30 19:46:00,
2013-12-30 14:51:00,31.8,22.1,30.19,NE,34,5.0,8.0,67,0.00,,,0.00,meteohub,2013-12-30 19:51:00,
2013-12-30 14:56:00,31.6,21.6,30.19,NE,39,1.0,8.0,66,0.00,,,0.00,meteohub,2013-12-30 19:56:00,
2013-12-30 15:01:00,31.6,21.6,30.20,NNE,32,4.0,7.0,66,0.00,,,0.00,meteohub,2013-12-30 20:01:00,
2013-12-30 15:06:00,31.6,21.2,30.20,North,4,2.0,7.0,65,0.00,,,0.00,meteohub,2013-12-30 20:06:00,
2013-12-30 15:11:00,31.5,21.4,30.21,NW,322,3.0,6.0,66,0.00,,,0.00,meteohub,2013-12-30 20:11:00,
2013-12-30 15:16:00,31.5,21.0,30.21,NE,37,2.0,6.0,65,0.00,,,0.00,meteohub,2013-12-30 20:16:00,
2013-12-30 15:21:00,31.5,21.0,30.21,NE,46,4.0,6.0,65,0.00,,,0.00,meteohub,2013-12-30 20:21:00,
2013-12-30 15:26:00,31.3,20.5,30.22,North,353,3.0,5.0,64,0.00,,,0.00,meteohub,2013-12-30 20:26:00,
2013-12-30 15:31:00,30.9,19.8,30.22,North,4,0.0,6.0,63,0.00,,,0.00,meteohub,2013-12-30 20:31:00,
2013-12-30 15:36:00,30.7,19.2,30.22,ENE,61,3.0,7.0,62,0.00,,,0.00,meteohub,2013-12-30 20:36:00,
2013-12-30 15:41:00,30.4,18.9,30.22,NNE,20,2.0,7.0,62,0.00,,,0.00,meteohub,2013-12-30 20:41:00,
2013-12-30 15:46:00,30.0,18.5,30.22,NE,43,3.0,7.0,62,0.00,,,0.00,meteohub,2013-12-30 20:46:00,
2013-12-30 15:51:00,29.8,18.9,30.23,NE,36,5.0,7.0,63,0.00,,,0.00,meteohub,2013-12-30 20:51:00,
2013-12-30 15:56:00,29.7,18.3,30.23,NE,46,1.0,7.0,62,0.00,,,0.00,meteohub,2013-12-30 20:56:00,
2013-12-30 16:01:00,29.3,17.6,30.24,NNE,15,5.0,5.0,61,0.00,,,0.00,meteohub,2013-12-30 21:01:00,
2013-12-30 16:06:00,28.9,17.6,30.23,NE,56,6.0,6.0,62,0.00,,,0.00,meteohub,2013-12-30 21:06:00,
2013-12-30 16:11:00,28.8,17.4,30.24,West,270,0.0,8.0,62,0.00,,,0.00,meteohub,2013-12-30 21:11:00,
2013-12-30 16:17:00,28.6,17.2,30.24,North,4,2.0,8.0,62,0.00,,,0.00,meteohub,2013-12-30 21:17:00,
2013-12-30 16:22:00,28.6,17.2,30.25,NNE,23,2.0,8.0,62,0.00,,,0.00,meteohub,2013-12-30 21:22:00,
2013-12-30 16:27:00,28.2,16.5,30.25,NNE,13,4.0,7.0,61,0.00,,,0.00,meteohub,2013-12-30 21:27:00,
2013-12-30 16:32:00,28.0,16.3,30.26,NNE,26,4.0,7.0,61,0.00,,,0.00,meteohub,2013-12-30 21:32:00,
2013-12-30 16:37:00,27.9,16.2,30.26,North,6,2.0,7.0,61,0.00,,,0.00,meteohub,2013-12-30 21:37:00,
2013-12-30 16:42:00,27.7,16.3,30.26,North,5,6.0,6.0,62,0.00,,,0.00,meteohub,2013-12-30 21:42:00,
2013-12-30 16:47:00,27.5,16.2,30.26,NW,310,2.0,6.0,62,0.00,,,0.00,meteohub,2013-12-30 21:47:00,
2013-12-30 16:52:00,27.3,15.6,30.26,NNE,23,4.0,7.0,61,0.00,,,0.00,meteohub,2013-12-30 21:52:00,
2013-12-30 16:57:00,27.1,16.2,30.26,NNE,29,3.0,7.0,63,0.00,,,0.00,meteohub,2013-12-30 21:57:00,
2013-12-30 17:02:00,27.1,15.4,30.27,North,8,3.0,6.0,61,0.00,,,0.00,meteohub,2013-12-30 22:02:00,
2013-12-30 17:07:00,27.0,14.9,30.27,NNW,332,3.0,5.0,60,0.00,,,0.00,meteohub,2013-12-30 22:07:00,
2013-12-30 17:12:00,26.8,14.7,30.27,NE,41,2.0,7.0,60,0.00,,,0.00,meteohub,2013-12-30 22:12:00,
2013-12-30 17:17:00,26.6,14.9,30.27,NW,316,3.0,7.0,61,0.00,,,0.00,meteohub,2013-12-30 22:17:00,
2013-12-30 17:22:00,26.4,14.7,30.27,NNE,26,4.0,7.0,61,0.00,,,0.00,meteohub,2013-12-30 22:22:00,
2013-12-30 17:27:00,26.4,14.7,30.27,North,354,3.0,8.0,61,0.00,,,0.00,meteohub,2013-12-30 22:27:00,
2013-12-30 17:32:00,26.2,14.5,30.28,North,4,3.0,8.0,61,0.00,,,0.00,meteohub,2013-12-30 22:32:00,
2013-12-30 17:37:00,26.1,14.5,30.28,NNE,19,4.0,8.0,61,0.00,,,0.00,meteohub,2013-12-30 22:37:00,
2013-12-30 17:42:00,26.1,14.0,30.28,NW,321,5.0,7.0,60,0.00,,,0.00,meteohub,2013-12-30 22:42:00,
2013-12-30 17:47:00,25.9,14.4,30.27,NW,322,3.0,7.0,61,0.00,,,0.00,meteohub,2013-12-30 22:47:00,
2013-12-30 17:52:00,25.7,14.2,30.28,North,0,0.0,7.0,61,0.00,,,0.00,meteohub,2013-12-30 22:52:00,
2013-12-30 17:57:00,25.5,14.0,30.28,NNE,12,1.0,5.0,61,0.00,,,0.00,meteohub,2013-12-30 22:57:00,
2013-12-30 18:02:00,25.3,13.8,30.29,NE,53,5.0,7.0,61,0.00,,,0.00,meteohub,2013-12-30 23:02:00,
2013-12-30 18:07:00,25.0,13.1,30.30,North,350,1.0,7.0,60,0.00,,,0.00,meteohub,2013-12-30 23:07:00,
2013-12-30 18:12:00,24.6,12.4,30.29,North,355,6.0,8.0,59,0.00,,,0.00,meteohub,2013-12-30 23:12:00,
2013-12-30 18:17:00,24.4,12.6,30.29,NNW,339,2.0,12.0,60,0.00,,,0.00,meteohub,2013-12-30 23:17:00,
2013-12-30 18:22:00,24.3,12.7,30.30,North,11,5.0,12.0,61,0.00,,,0.00,meteohub,2013-12-30 23:22:00,
2013-12-30 18:27:00,24.1,12.2,30.30,NNW,347,3.0,12.0,60,0.00,,,0.00,meteohub,2013-12-30 23:27:00,
2013-12-30 18:32:00,23.9,12.0,30.30,North,0,0.0,6.0,60,0.00,,,0.00,meteohub,2013-12-30 23:32:00,
2013-12-30 18:37:00,23.7,11.8,30.30,NE,53,0.0,6.0,60,0.00,,,0.00,meteohub,2013-12-30 23:37:00,
2013-12-30 18:42:00,23.5,11.3,30.29,North,351,1.0,6.0,59,0.00,,,0.00,meteohub,2013-12-30 23:42:00,
2013-12-30 18:47:00,23.4,11.1,30.30,NNW,347,7.0,7.0,59,0.00,,,0.00,meteohub,2013-12-30 23:47:00,
2013-12-30 18:52:00,23.2,11.3,30.30,WNW,294,3.0,8.0,60,0.00,,,0.00,meteohub,2013-12-30 23:52:00,
2013-12-30 18:57:00,23.0,10.0,30.31,NNE,29,2.0,8.0,57,0.00,,,0.00,meteohub,2013-12-30 23:57:00,
2013-12-30 19:02:00,22.8,9.5,30.31,NNE,32,4.0,9.0,56,0.00,,,0.00,meteohub,2013-12-31 00:02:00,
2013-12-30 19:07:00,22.6,9.3,30.31,North,8,3.0,13.0,56,0.00,,,0.00,meteohub,2013-12-31 00:07:00,
2013-12-30 19:12:00,22.5,8.8,30.31,NW,317,3.0,13.0,55,0.00,,,0.00,meteohub,2013-12-31 00:12:00,
2013-12-30 19:17:00,22.3,9.0,30.32,NW,318,1.0,13.0,56,0.00,,,0.00,meteohub,2013-12-31 00:17:00,
2013-12-30 19:22:00,22.1,8.4,30.32,NNE,25,5.0,9.0,55,0.00,,,0.00,meteohub,2013-12-31 00:22:00,
2013-12-30 19:27:00,21.9,8.6,30.32,North,9,9.0,11.0,56,0.00,,,0.00,meteohub,2013-12-31 00:27:00,
2013-12-30 19:32:00,21.7,8.8,30.32,NNW,329,4.0,12.0,57,0.00,,,0.00,meteohub,2013-12-31 00:32:00,
2013-12-30 19:37:00,21.6,9.1,30.32,NNW,333,2.0,12.0,58,0.00,,,0.00,meteohub,2013-12-31 00:37:00,
2013-12-30 19:42:00,21.6,9.5,30.32,NNW,335,2.0,12.0,59,0.00,,,0.00,meteohub,2013-12-31 00:42:00,
2013-12-30 19:47:00,21.4,9.7,30.32,NE,51,3.0,7.0,60,0.00,,,0.00,meteohub,2013-12-31 00:47:00,
2013-12-30 19:52:00,21.2,9.5,30.32,NNE,23,2.0,8.0,60,0.00,,,0.00,meteohub,2013-12-31 00:52:00,
2013-12-30 19:57:00,21.0,9.3,30.33,East,86,4.0,8.0,60,0.00,,,0.00,meteohub,2013-12-31 00:57:00,
2013-12-30 20:02:00,21.0,9.3,30.33,ENE,70,2.0,8.0,60,0.00,,,0.00,meteohub,2013-12-31 01:02:00,
2013-12-30 20:07:00,20.8,9.5,30.32,NNE,13,2.0,7.0,61,0.00,,,0.00,meteohub,2013-12-31 01:07:00,
2013-12-30 20:12:00,20.7,9.3,30.33,North,353,2.0,7.0,61,0.00,,,0.00,meteohub,2013-12-31 01:12:00,
2013-12-30 20:17:00,20.7,9.7,30.33,NNW,330,2.0,7.0,62,0.00,,,0.00,meteohub,2013-12-31 01:17:00,
2013-12-30 20:22:00,20.5,9.1,30.33,NNE,12,5.0,7.0,61,0.00,,,0.00,meteohub,2013-12-31 01:22:00,
2013-12-30 20:27:00,20.3,9.0,30.33,West,274,3.0,8.0,61,0.00,,,0.00,meteohub,2013-12-31 01:27:00,
2013-12-30 20:32:00,20.1,8.8,30.34,ENE,71,2.0,8.0,61,0.00,,,0.00,meteohub,2013-12-31 01:32:00,
2013-12-30 20:37:00,19.9,8.6,30.34,NE,36,1.0,8.0,61,0.00,,,0.00,meteohub,2013-12-31 01:37:00,
2013-12-30 20:42:00,19.8,8.4,30.35,SW,228,0.0,6.0,61,0.00,,,0.00,meteohub,2013-12-31 01:42:00,
2013-12-30 20:47:00,19.8,8.4,30.34,NNE,19,3.0,6.0,61,0.00,,,0.00,meteohub,2013-12-31 01:47:00,
2013-12-30 20:52:00,19.6,7.9,30.35,ENE,74,3.0,7.0,60,0.00,,,0.00,meteohub,2013-12-31 01:52:00,
2013-12-30 20:57:00,19.4,8.1,30.35,NNE,29,4.0,7.0,61,0.00,,,0.00,meteohub,2013-12-31 01:57:00,
2013-12-30 21:02:00,19.2,7.7,30.35,NNW,344,6.0,6.0,60,0.00,,,0.00,meteohub,2013-12-31 02:02:00,
2013-12-30 21:07:00,19.0,7.9,30.35,NNE,23,2.0,7.0,61,0.00,,,0.00,meteohub,2013-12-31 02:07:00,
2013-12-30 21:12:00,19.0,7.9,30.36,NE,51,5.0,7.0,61,0.00,,,0.00,meteohub,2013-12-31 02:12:00,
2013-12-30 21:17:00,18.9,7.7,30.36,NNW,345,4.0,7.0,61,0.00,,,0.00,meteohub,2013-12-31 02:17:00,
2013-12-30 21:22:00,18.7,7.5,30.36,NE,49,1.0,5.0,61,0.00,,,0.00,meteohub,2013-12-31 02:22:00,
2013-12-30 21:27:00,18.7,7.5,30.36,WSW,240,0.0,6.0,61,0.00,,,0.00,meteohub,2013-12-31 02:27:00,
2013-12-30 21:32:00,18.7,7.5,30.37,NNE,23,2.0,6.0,61,0.00,,,0.00,meteohub,2013-12-31 02:32:00,
2013-12-30 21:37:00,18.3,7.2,30.37,North,4,1.0,6.0,61,0.00,,,0.00,meteohub,2013-12-31 02:37:00,
2013-12-30 21:42:00,18.3,7.2,30.37,ENE,68,1.0,4.0,61,0.00,,,0.00,meteohub,2013-12-31 02:42:00,
2013-12-30 21:47:00,18.1,7.3,30.37,NE,47,0.0,4.0,62,0.00,,,0.00,meteohub,2013-12-31 02:47:00,
2013-12-30 21:52:00,18.1,7.3,30.36,NNE,30,1.0,6.0,62,0.00,,,0.00,meteohub,2013-12-31 02:52:00,
2013-12-30 21:57:00,18.0,7.2,30.37,NNE,26,3.0,6.0,62,0.00,,,0.00,meteohub,2013-12-31 02:57:00,
2013-12-30 22:02:00,18.0,7.2,30.36,NNE,32,1.0,6.0,62,0.00,,,0.00,meteohub,2013-12-31 03:02:00,
2013-12-30 22:07:00,17.8,7.0,30.37,NW,326,2.0,5.0,62,0.00,,,0.00,meteohub,2013-12-31 03:07:00,
2013-12-30 22:12:00,17.8,7.3,30.37,NNE,32,3.0,5.0,63,0.00,,,0.00,meteohub,2013-12-31 03:12:00,
2013-12-30 22:17:00,17.6,7.2,30.37,NNW,343,0.0,4.0,63,0.00,,,0.00,meteohub,2013-12-31 03:17:00,
2013-12-30 22:22:00,17.4,7.0,30.37,NNW,336,3.0,4.0,63,0.00,,,0.00,meteohub,2013-12-31 03:22:00,
2013-12-30 22:27:00,17.4,7.0,30.37,NNW,329,0.0,4.0,63,0.00,,,0.00,meteohub,2013-12-31 03:27:00,
2013-12-30 22:32:00,17.2,7.2,30.37,NNW,337,3.0,3.0,64,0.00,,,0.00,meteohub,2013-12-31 03:32:00,
2013-12-30 22:37:00,17.2,7.5,30.37,NW,313,0.0,4.0,65,0.00,,,0.00,meteohub,2013-12-31 03:37:00,
2013-12-30 22:42:00,17.1,7.3,30.37,NE,37,0.0,4.0,65,0.00,,,0.00,meteohub,2013-12-31 03:42:00,
2013-12-30 22:47:00,17.1,7.3,30.37,NNE,12,1.0,4.0,65,0.00,,,0.00,meteohub,2013-12-31 03:47:00,
2013-12-30 22:52:00,16.9,7.5,30.38,NW,316,0.0,3.0,66,0.00,,,0.00,meteohub,2013-12-31 03:52:00,
2013-12-30 22:57:00,16.9,7.2,30.38,NNW,334,0.0,3.0,65,0.00,,,0.00,meteohub,2013-12-31 03:57:00,
2013-12-30 23:02:00,16.7,7.0,30.37,North,9,2.0,5.0,65,0.00,,,0.00,meteohub,2013-12-31 04:02:00,
2013-12-30 23:07:00,16.7,7.0,30.37,WNW,302,2.0,5.0,65,0.00,,,0.00,meteohub,2013-12-31 04:07:00,
2013-12-30 23:12:00,16.5,6.8,30.36,NNE,23,1.0,5.0,65,0.00,,,0.00,meteohub,2013-12-31 04:12:00,
2013-12-30 23:17:00,16.5,6.4,30.36,NW,325,3.0,5.0,64,0.00,,,0.00,meteohub,2013-12-31 04:17:00,
2013-12-30 23:22:00,16.5,6.1,30.36,NNE,29,2.0,8.0,63,0.00,,,0.00,meteohub,2013-12-31 04:22:00,
2013-12-30 23:27:00,16.3,5.9,30.35,NNE,15,3.0,8.0,63,0.00,,,0.00,meteohub,2013-12-31 04:27:00,
2013-12-30 23:32:00,16.3,6.3,30.35,ENE,58,3.0,7.0,64,0.00,,,0.00,meteohub,2013-12-31 04:32:00,
2013-12-30 23:37:00,16.2,5.7,30.35,NNE,26,4.0,7.0,63,0.00,,,0.00,meteohub,2013-12-31 04:37:00,
2013-12-30 23:42:00,16.2,5.7,30.35,NW,307,2.0,5.0,63,0.00,,,0.00,meteohub,2013-12-31 04:42:00,
2013-12-30 23:44:00,16.2,5.7,30.35,NNE,25,2.0,5.0,63,0.00,,,0.00,meteohub,2013-12-31 04:44:00,
2013-12-30 23:49:00,16.0,5.9,30.35,NE,39,2.0,5.0,64,0.00,,,0.00,meteohub,2013-12-31 04:49:00,
2013-12-30 23:54:00,16.0,5.9,30.33,North,11,2.0,6.0,64,0.00,,,0.00,meteohub,2013-12-31 04:54:00,
2013-12-30 23:59:00,15.8,6.1,30.34,NNE,25,4.0,6.0,65,0.00,,,0.00,meteohub,2013-12-31 04:59:00,